Погода в Никифорове

Россия / Владимирская область     56°03′10″N   38°56′45″E
темп.,
°C
ветер,
м/с
пор.,
м/с
влажн.,
%
обл.,
%
осадки,
мм/ч
давл.,
гПа
погр.,
м
7 марта, вс
вс700:00−13юз23930 0.0 101257
03:00−13ююз310933 0.0 1009234
06:00−9ююз6149192 0.1 1004679
09:00−7юз7149396 1.4 999951
12:00−4юз71492100 1.2 9951108
15:00−2юз61193100 3.0 993959
18:00−5з2489100 1.2 993117
21:00−8юз2390100 1.2 99466
8 марта, пн
пн800:00−6з4989100 0.5 995818
03:00−11зюз389472 0.5 995204
06:00−9юз399493 0.1 994390
09:00−7зсз488997 0.5 995787
12:00−6сз5881100 0.4 9981130
15:00−6сз577998 0.6 10021008
18:00−9ссз269073 0.0 1005148
21:00−13ссз379444 0.0 1008156
9 марта, вт
вт900:00−15ссз269618 0.0 1009131
03:00−16ссз269750 0.0 1011150
06:00−17ссз369785 0.0 1013175
09:00−17с369388 0.1 1016320
12:00−14ссз358587 0.0 1017543
15:00−12ссз358393 0.1 1018718
18:00−16ссз3791100 0.0 1019302
21:00−20ссз389790 0.1 1022217
10 марта, ср
ср1000:00−24ссз269719 0.0 1024115
03:00−25ссз249710 0.0 102576
06:00−26ссз23970 0.0 102641
09:00−21с23890 0.0 1028197
12:00−14ссз12720 0.0 1028477
15:00−12сз24700 0.0 1028905
18:00−15с228676 0.0 102822
21:00−20ссв129442 0.0 102920
11 марта, чт
чт1100:00−22ссв11960 0.0 103020
03:00−23зюз00962 0.0 103020
06:00−24юз019530 0.0 103020
09:00−18ю118631 0.0 1031107
12:00−12ю22750 0.0 1030393
15:00−10ю24760 0.0 1029604
18:00−13ююв23890 0.0 102868
21:00−17ююв39940 0.0 1028198